This is the latest recevied weather packets stored in our database for station/object W1SCW. If no packets are shown the sender has not sent any weather packets the latest 10 day(s).
| Time | Temp. | Humidity | Pressure | Rain* | Wind** | Luminosity | Snow |
|---|---|---|---|---|---|---|---|
| 1777827238 | 26.11° C | 39% | 1021.3 hPa | 0 mm | - | 838 W/m² | - |
| 1777826934 | 26.11° C | 46% | 1021.4 hPa | 0 mm | - | 829 W/m² | - |
| 1777826631 | 26.11° C | 43% | 1021.5 hPa | 0 mm | - | 821 W/m² | - |
| 1777826327 | 26.11° C | 44% | 1021.3 hPa | 0 mm | - | 815 W/m² | - |
| 1777826025 | 25.56° C | 46% | 1021.3 hPa | 0 mm | - | 808 W/m² | - |
| 1777825722 | 26.11° C | 42% | 1021.5 hPa | 0 mm | - | 799 W/m² | - |
| 1777825420 | 25.56° C | 41% | 1021.5 hPa | 0 mm | - | 790 W/m² | - |
| 1777825117 | 25° C | 42% | 1021.4 hPa | 0 mm | - | 780 W/m² | - |
| 1777824812 | 25° C | 45% | 1021.6 hPa | 0 mm | - | 768 W/m² | - |
| 1777824509 | 25° C | 45% | 1021.7 hPa | 0 mm | - | 757 W/m² | - |
| 1777824206 | 25° C | 46% | 1021.5 hPa | 0 mm | - | 746 W/m² | - |
| 1777823901 | 26.11° C | 47% | 1021.3 hPa | 0 mm | - | 739 W/m² | - |
| 1777823600 | 25.56° C | 45% | 1021.5 hPa | 0 mm | - | 725 W/m² | - |
| 1777823296 | 25° C | 46% | 1021.5 hPa | 0 mm | - | 713 W/m² | - |
| 1777822994 | 25° C | 46% | 1021.5 hPa | 0 mm | - | 701 W/m² | - |
| 1777822692 | 24.44° C | 47% | 1021.6 hPa | 0 mm | - | 687 W/m² | - |
| 1777822389 | 24.44° C | 47% | 1021.3 hPa | 0 mm | - | 674 W/m² | - |
| 1777822087 | 24.44° C | 48% | 1021.5 hPa | 0 mm | - | 661 W/m² | - |
| 1777821784 | 25° C | 48% | 1021.5 hPa | 0 mm | - | 649 W/m² | - |
| 1777821481 | 23.89° C | 47% | 1021.3 hPa | 0 mm | - | 636 W/m² | - |
| 1777821179 | 24.44° C | 49% | 1021.3 hPa | 0 mm | - | 621 W/m² | - |
| 1777820875 | 23.89° C | 50% | 1021.3 hPa | 0 mm | - | 605 W/m² | - |
| 1777820571 | 23.89° C | 49% | 1021.4 hPa | 0 mm | - | 589 W/m² | - |
| 1777820268 | 23.89° C | 48% | 1021.3 hPa | 0 mm | - | 572 W/m² | - |
| 1777819966 | 23.33° C | 50% | 1021.3 hPa | 0 mm | - | 555 W/m² | - |
* Rain latest hour (hover to see other rain measurements)
** Current wind speed in m/s (hover to see current wind gust speed)